LGKOLGIR

Guest
Details From LGKO - Kos
To LGIR - Iraklion - Nizos Kazantzakis
Flight Number -
Tags Generated
Created
Modified
Stats Distance 127 nm / 236 km
Max Altitude 0 ft / 0 m
Waypoints 2
Social Downloads 2
Likes 0
Share VATSIM

Download

Looking for another format? Having issues loading an existing format? Contact us
Advertisement - Login to hide

Notes

Generated

Route

LGKO LGIR

ID Type Via Altitude Latitude Longitude Leg Dist Tot Dist Heading (true) Name
O LGKO APT - 0 ft / 0 m 36.80364˚ 27.08364˚ - 0 nm - -
O LGIR APT - 0 ft / 0 m 35.34229˚ 25.18426˚ 127 nm 127 nm 227° / 226° Iraklion - Nizos Kazantzakis

Altitude Profile

Advertisement - Login to hide

LGKO

Details ICAO LGKO (KGS)
Name KOS
Region Greece
Timezone Europe/Athens (UTC+3.0)
Stats Elevation 412 ft / 126 m (AMSL)
Location 36.794403° 27.090764°
Runways 1
Magnetic Variation 4.765° E

METAR

LGKO 232050Z VRB03KT CAVOK 21/16 Q1014

Decode

TAF

TAF LGKO 231700Z 2318/2418 29010KT 9999 FEW015

Decode

Departure Runways

ID Width Length Bearing (true) Bearing (mag) Surface Threshold Offset Overrun Length
14 148 ft / 45 m 7,923 ft / 2,415 m 148.29° 143.52° Asphalt 0 ft / 0 m 240 ft / 73 m
32 148 ft / 45 m 7,923 ft / 2,415 m 328.30° 323.53° Asphalt 0 ft / 0 m 205 ft / 62 m

LGIR

Details ICAO LGIR (HER)
Name Iraklion - Nizos Kazantzakis
Region Greece
Timezone Europe/Athens (UTC+3.0)
Stats Elevation 115 ft / 35 m (AMSL)
Location 35.339487° 25.180120°
Runways 3
Magnetic Variation 4.421° E

METAR

LGIR 232050Z 34004KT 9999 FEW025 22/20 Q1013 NOSIG

Decode

TAF

TAF AMD LGIR 231901Z 2319/2418 VRB05KT 9999 FEW025 SCT080 BECMG 2407/2409 30015KT

Decode

Destination Runways

ID Width Length Bearing (true) Bearing (mag) Surface Threshold Offset Overrun Length
09 148 ft / 45 m 8,755 ft / 2,669 m 94.84° 90.42° Asphalt 1,565 ft / 477 m 200 ft / 61 m
12 164 ft / 50 m 5,136 ft / 1,566 m 126.27° 121.85° Asphalt 499 ft / 152 m 190 ft / 58 m
18 131 ft / 40 m 2,607 ft / 795 m 180.40° 175.98° Asphalt 0 ft / 0 m 0 ft / 0 m
27 148 ft / 45 m 8,755 ft / 2,669 m 274.86° 270.44° Asphalt 0 ft / 0 m 210 ft / 64 m
30 164 ft / 50 m 5,136 ft / 1,566 m 306.28° 301.86° Asphalt 0 ft / 0 m 0 ft / 0 m
36 131 ft / 40 m 2,607 ft / 795 m 0.40° 355.98° Asphalt 328 ft / 100 m 0 ft / 0 m

Popular Alternatives